1st Responders/1st Detectors/Storm Spotters Weather Summary for Campbell County, KY

Forecast Maps


Reg. NEXRAD Animation


National Fire Danger: Day 1 & 2 Map

Current NWS Watch/Warnings

SPC Convective Day 1 Outlook


Day 2 Outlook

(Click images to enlarge|Page will refresh every 5 minutes)
UK Ag. Weather Center Desktop Severe Weather Service[HERE]
Campbell County, KY Hazardous Weather Outlook Webcast
(9 AM to 9 PM Mon-Fri)
[Fast]
[Dial-up]


UKAWC 1st Detectors/1st Responders Precision Weather Forecast For CAMPBELL County, Kentucky
(based on the NWS County Digital Forecast)

ISSUED AT 19:00 UTC ON SUNDAY OCT 22 2017
DAY SUNDAY
EDT 3HR 4P 5P 6P 7P
MAX/MIN -- -- -- 77°
TEMP 77° 77° 76° 72°
SKY COVER 19% 18% 23% 34%
Clouds
DEW PT 54° 54° 54° 54°
RH 44% 44% 48% 51%
POP 12HR -- -- -- --
RAIN/SNOW (liq.equ) -- -- -- --
SNOWFALL -- -- -- --
WIND SPEED(MPH) 9 9 8 7
WIND Gust(MPH) 13 13 9 7
WIND DIR S S S S
DEW -- -- -- --
HeatIndex 77 77 76 72
Rain Showers -- -- -- --
WIND CHILL -- -- -- --
SPRAY COND
DRY COND
LIVESTOCK COLDSTRESS
LIVESTOCK HEATSTRESS 71.39 71.39 71.08 68.44



DAY MONDAY TUESDAY WEDNESDAY THURSDAY FRIDAY SATURDAY
EDT 6HR 8P 9P 10P 11P MIDN 1A 2A 3A 4A 5A 6A 7A 8A 9A 10A 11A NOON 1P 2P 3P 4P 5P 6P 7P 8P 9P 10P 11P MIDN 1A 2A 3A 5A 8A 11A 2P 5P 8P 2A 8A 2P 8P 2A 8A 2P 8P 2A 8A 2P 8P 2A 8A 2P 8P
MAX/MIN -- -- -- -- -- -- -- -- -- -- -- -- 58° -- -- -- -- -- -- -- -- -- -- 67° -- -- -- -- -- -- -- -- -- 49° -- -- 58° -- -- 40° 50° -- -- 36° 58° -- -- 45° 63° -- -- 43° 56° --
TEMP 70° 68° 67° 65° 65° 63° 63° 61° 61° 59° 59° 58° 58° 59° 61° 63° 65° 65° 67° 67° 67° 67° 65° 63° 61° 58° 56° 56° 54° 52° 52° 52° 49° 49° 54° 56° 58° 50° 43° 40° 49° 45° 38° 36° 56° 54° 47° 45° 61° 54° 47° 43° 56° 49°
SKY COVER 39% 47% 62% 69% 77% 85% 91% 94% 95% 95% 96% 98% 99% 100% 100% 100% 100% 100% 100% 100% 100% 100% 99% 98% 99% 97% 93% 90% 86% 82% 81% 81% 81% 82% 72% 62% 65% 67% 66% 69% 75% 62% 23% 21% 17% 15% 23% 32% 50% 59% 68% 72% 67% 63%
Clouds
DEW PT 54° 54° 54° 54° 54° 54° 56° 56° 56° 56° 56° 58° 58° 58° 58° 59° 61° 61° 61° 61° 61° 59° 58° 58° 58° 56° 56° 54° 52° 50° 49° 49° 47° 47° 45° 43° 41° 40° 38° 38° 36° 36° 36° 36° 38° 40° 40° 41° 47° 45° 43° 41° 41° 40°
RH 54% 58% 63% 65% 69% 74% 77% 80% 86% 90% 89% 96% 96% 96% 90% 86% 86% 86% 83% 81% 77% 75% 78% 86% 93% 93% 96% 93% 92% 92% 89% 89% 92% 93% 74% 61% 55% 66% 85% 92% 57% 70% 92% 99% 50% 58% 73% 89% 62% 71% 85% 95% 59% 68%
POP 12HR 3% -- -- -- -- -- -- -- -- -- -- -- 59% -- -- -- -- -- -- -- -- -- -- -- 100% -- -- -- -- -- -- -- -- 67% -- -- -- 40% -- 24% -- 25% -- 8% -- 6% -- 13% -- 17% -- 29% -- 29%
RAIN/SNOW (liq.equ) 0.00in -- -- -- -- -- 0.01in -- -- -- -- -- 0.21in -- -- -- -- -- 0.44in -- -- -- -- -- 0.42in -- -- -- -- -- 0.28in -- -- 0.13in -- 0.04in -- 0.02in -- -- -- -- -- -- -- -- -- -- -- -- -- -- -- --
SNOWFALL 0in -- -- -- -- -- 0in -- -- -- -- -- 0in -- -- -- -- -- 0in -- -- -- -- -- 0in -- -- -- -- -- 0in -- -- 0in -- 0in -- 0in -- -- -- -- -- -- -- -- -- -- -- -- -- -- -- --
WIND SPEED(MPH) 7 7 7 7 7 7 7 7 7 7 7 7 7 7 7 8 8 9 10 9 9 9 9 9 9 9 8 8 8 8 7 7 7 7 9 10 10 7 7 7 9 7 2 2 7 7 7 7 9 7 2 2 7 5
WIND DIR SE SE SE SE SE SE S S SE SE SE SE SE SE SE SE S S S S S S S S SW SW SW W W W W W SW SW W W W W W W W SW SW S S S S S SW SW SW SW W W
HeatIndex 70 68 67 65 65 63 63 61 61 59 59 58 58 59 61 63 65 65 67 67 67 67 65 63 61 58 56 56 54 52 52 52 49 49 54 56 58 50 38 35 49 41 36 33 56 54 47 40 61 54 47 41 56 49
Rain Showers -- -- -- -- -- Slight Chance Slight Chance Slight Chance Chance Chance Chance Definite Definite Definite Definite Definite Definite Definite Definite Definite Likely Likely Likely Likely Likely Chance Chance Chance Chance Chance Chance Chance Chance Chance Chance Chance Chance Slight Chance Slight Chance Chance Slight Chance -- -- -- -- -- -- -- -- Slight Chance Chance Chance Chance Chance
WIND CHILL -- -- -- -- -- -- -- -- -- -- -- -- -- -- -- -- -- -- -- -- -- -- -- -- -- -- -- -- -- -- -- -- -- -- -- -- -- -- 39° 35° -- 41° -- -- -- -- -- 41° -- -- -- -- -- --
SPRAY COND
DRY COND
LIVESTOCK COLDSTRESS
LIVESTOCK HEATSTRESS 67.17 65.87 65.33 63.81 63.94 62.40 62.47 60.76 60.83 58.99 58.99 58.02 58.02 59.00 60.88 62.68 64.52 64.52 66.23 66.14 65.96 65.87 64.25 62.68 60.92 58.03 56.06 56.11 54.21 52.30 52.41 52.41 49.43 49.38 54.69 56.60 58.20 51.65 44.30 40.83 51.32 47.28 38.92 36.13 56.77 55.11 48.75 45.83 60.54 54.77 47.97 43.43 56.63 50.72

Click on individual weather variable above in left-hand column (ie., TEMP, RH, QPF 12HR) to view state forecast maps






NWS 48 Hr. Forecast Maps,

Regional Hourly Observations For CAMPBELL County, Kentucky
Issued at 300 PM EDT SUN OCT 22 2017
...SOUTHERN OHIO/WEST VIRGINIA...
  
CITY           SKY/WX    TMP DP  RH WIND       PRES   REMARKS
COVINGTON      PTSUNNY   74  57  55 S14       30.11F                  
COLUMBUS       PTSUNNY   77  53  43 S14G22    30.15F                  
DAYTON         MOSUNNY   74  56  53 S16G23    30.12F                  
WILMINGTON     MOSUNNY   75  51  43 S12       30.13F                  
HUNTINGTON     CLOUDY    75  48  38 SE6       30.17F                  
CHARLESTON     MOSUNNY   79  45  29 NE5       30.19F                  
PINEVILLE*     CLOUDY    78  44  30 MISG      30.26F                  
BECKLEY        SUNNY     72  48  42 E14       30.27F                  
BLUEFIELD      CLOUDY    70  45  40 SE9       30.29F                  
LOGAN CO APT*    N/A     75  46  35 CALM      30.20F                  


Current NOWCAST not available:
Nowcasts are not issued routinely during fair weather. Only when
precipitation or other significant weather is occuring in this county will these
forecasts be issued. Currently, there is no short term forecast in effect.


Fire Weather Forecast For CAMPBELL County, KY
Provided by the National Weather Service:

Issued at: Sun Oct 22 15:05:01 EDT 2017

CLOUD COVER                    MClear        MCldy       Cloudy
PRECIP TYPE                      None      Showers      Showers
CHANCE PRECIP (%)                   0           50           90
TEMP (24H TREND)              78 (+3)      59 (+9)           68
RH % (24H TREND)              42 (+1)       95 (0)           73
20FTWND-AM(MPH)                  S  6                   Lgt/Var
20FTWND-PM(MPH)                  S  8        SE  5         S  6
PRECIP AMOUNT                    0.00         0.14         0.80
PRECIP DURATION                                  1           10
MIXING HGT(FT-AGL)               5310                      4120
TRANSPORT WND (MPH)              S 25                     NW 14
LAL                                 1            1            1
HAINES INDEX                        4            3            3

REMARKS...None.

.FORECAST FOR DAYS 3 THROUGH 7...
.MONDAY NIGHT...Cloudy with showers likely. Lows in the upper 40s. South
winds around 5 mph. 
.TUESDAY...Mostly cloudy with showers likely. Highs in the upper 50s. West
winds 5 to 10 mph. 
.WEDNESDAY...Mostly cloudy with a chance of showers. Lows around 40. Highs
in the mid 50s. West winds 5 to 10 mph. 
.THURSDAY...Partly cloudy. Lows in the mid 30s. Highs in the upper 50s.
South winds around 5 mph. 
.FRIDAY...Partly cloudy. A chance of showers. Lows in the mid 40s. Highs
in the lower 60s. Southwest winds 5 to 10 mph. 
.SATURDAY...Mostly cloudy. A chance of showers. Lows in the mid 40s. Highs
in the upper 50s. Southwest winds around 5 mph. 

SPC's Fire Weather Web Tool (Excellent!), SPC's Fire Weather Outlooks, NWS Fire Weather WEB, Fire Danger Class Map,
Keetch-Byram Drought Index, ROMAN Web, Haines Index ,
WFAS's 10-hr Dead Fuel Moist., WFAS's 100-hr Dead Fuel Moist., Probablity of Ignition, Visual blackness Map, Palmer Drought Index, HPC's Rainfall Forecast Maps


Hazardous Weather Outlook For CAMPBELL County, Kentucky
509 AM EDT Sun Oct 22 2017

 DAY ONE  Today and Tonight.

No hazardous weather is expected at this time.

 DAYS TWO THROUGH SEVEN  Monday through Saturday.

The probability for widespread hazardous weather is low.

 SPOTTER INFORMATION STATEMENT  

Spotter activation is not expected at this time.

Latest CAMPBELL County, Kentucky Watches, Warnings and Advisories.
Additional Drought Info.: UKAWC Drought Page, Kentucky Drought Watch


7-Day Forecast For CAMPBELL County, KY

THIS AFTERNOON
Mostly sunny. Highs in the upper 70s. South winds around 10 mph.

TONIGHT
Partly cloudy in the evening, then mostly cloudy with a chance of showers after midnight. Lows in the upper 50s. South winds 5 to 10 mph. Chance of rain 50 percent.

MONDAY
Showers. Highs in the upper 60s. South winds 5 to 10 mph. Chance of rain 90 percent.

MONDAY NIGHT
Showers likely. Lows in the upper 40s. Southwest winds 5 to 10 mph. Chance of rain 70 percent.

TUESDAY
Mostly cloudy in the morning, then becoming partly cloudy. A 50 percent chance of showers. Highs in the upper 50s. West winds 5 to 10 mph.

TUESDAY NIGHT
Partly cloudy. A chance of showers in the evening. Lows around 40. Chance of rain 30 percent.

WEDNESDAY
Partly cloudy in the morning, then becoming mostly cloudy. A 30 percent chance of showers. Highs in the lower 50s.

WEDNESDAY NIGHT
Partly cloudy in the evening, then clearing. Lows in the mid 30s.

THURSDAY
Mostly sunny. Highs around 60.

THURSDAY NIGHT
Mostly clear. Lows in the mid 40s.

FRIDAY
Partly cloudy. Highs in the lower 60s.

FRIDAY NIGHT
Partly cloudy. A chance of showers after midnight. Lows in the lower 40s. Chance of rain 30 percent.

SATURDAY
Mostly cloudy in the morning, then becoming partly cloudy. A 30 percent chance of showers. Highs in the upper 50s.

Ag Weather Center, Department of Biosystems & Agricultural Engineering, University of Kentucky